Powrót do katalogu

COSMOS 970 DEB

AktywnyLEO
NORAD 64978·DEBRIS·🇷🇺 Russia

Wystrzelony Dec 21, 1977 z Baikonur Cosmodrome

Loading…

Następne Przeloty (najbliższe 24 godziny)

TLE

NieaktualneSource: Space-Track

Epoka: Aug 24, 2026, 05:30 UTC

1 64978U 77121CP  26236.22923591  .00001234  00000-0  87977-3 0  9995
2 64978  65.6412 175.0306 0091507 247.6311 111.5047 13.99099900626460

Śledź COSMOS 970 DEB w czasie rzeczywistym z AllMySat

Download on the App Store